Tracking 28790 objects as of 19-Apr-2024
HD Live streaming from Space Station
objects crossing your sky now

FENGYUN 1C DEB

Track FENGYUN 1C DEB now!
10-day predictions


NORAD ID: 30138
Int'l Code: 1999-025ST
Perigee: 830.0 km
Apogee: 861.4 km
Inclination: 98.8 °
Period: 101.7 minutes
Semi major axis: 7216 km
RCS: 0.0422 m2 (small)
Launch date: May 10, 1999
Source: People's Republic of China (PRC)
Launch site: Taiyaun Space Center, China (TSC)

Note: This is SATELLITE DEBRIS
Your satellite tracking list
Your tracking list is empty




NASA's NSSDC Master Catalog

Two Line Element Set (TLE):
1 30138U 99025ST  24109.84335372  .00004588  00000-0  23377-2 0  9990
2 30138  98.8127 162.9712 0021725  71.0279 341.7144 14.16102302888629
Source of the keplerian elements: AFSPC